Location: Lourdes
(43.1000°N, 0.0500°W)
Time: 09:09:05
(UTC+00:00)

Cosmos 1943 - Visible Passes

Search period start: 29 July 2021 00:00
Search period end: 08 August 2021 00:00
Orbit: 831 x 852 km, 71.0° (Epoch: 28 July)

Date Brightness Start Highest point End Pass type
(mag) Time Alt. Az. Time Alt. Az. Time Alt. Az.
29 Jul 5.9 00:36:41 10° NNE 00:39:31 14° NE 00:42:21 10° ENE visible
29 Jul 3.4 02:18:56 10° NNW 02:24:40 71° ENE 02:30:20 10° SSE visible
29 Jul 4.7 04:04:30 10° WNW 04:08:03 17° W 04:11:34 10° SW visible
30 Jul 5.9 00:21:44 10° NNE 00:24:23 13° NE 00:27:01 10° ENE visible
30 Jul 3.5 02:03:52 10° NNW 02:09:35 67° ENE 02:15:00 11° SE visible
30 Jul 4.6 03:49:17 10° WNW 03:53:00 18° W 03:56:39 10° SW visible
31 Jul 5.9 00:06:49 10° NNE 00:09:15 13° NE 00:11:40 10° ENE visible
31 Jul 3.5 01:48:48 10° NNW 01:54:29 64° ENE 01:58:29 20° SE visible
31 Jul 4.6 03:34:04 10° NW 03:37:57 19° W 03:40:11 15° SW visible
31 Jul 5.9 23:51:55 10° NNE 23:54:06 12° NE 23:56:17 10° ENE visible
01 Aug 3.6 01:33:44 10° NNW 01:39:24 61° ENE 01:42:22 28° SE visible
01 Aug 4.5 03:18:53 10° NW 03:22:55 20° W 03:24:04 19° WSW visible
01 Aug 5.9 23:37:03 10° NNE 23:38:58 12° NE 23:40:53 10° ENE visible
02 Aug 3.7 01:18:40 10° NNW 01:24:20 58° ENE 01:26:29 36° ESE visible
02 Aug 4.4 03:03:42 10° NW 03:07:52 21° W 03:08:13 21° WSW visible
02 Aug 5.9 23:22:13 10° NNE 23:23:49 11° NE 23:25:25 10° NE visible
03 Aug 3.7 01:03:37 10° NNW 01:09:13 55° ENE 01:10:48 42° ESE visible
03 Aug 4.4 02:48:31 10° NW 02:52:33 22° W 02:52:33 22° W visible
03 Aug 5.9 23:07:29 10° NNE 23:08:40 11° NE 23:09:52 10° NE visible
04 Aug 3.8 00:48:33 10° NNW 00:54:09 52° ENE 00:55:15 45° E visible
04 Aug 4.5 02:33:21 10° NW 02:37:00 23° W 02:37:00 23° W visible
04 Aug 5.9 22:53:00 10° NNE 22:53:32 10° NE 22:54:04 10° NE visible
05 Aug 3.8 00:33:30 10° NNW 00:39:03 50° ENE 00:39:49 47° E visible
05 Aug 4.5 02:18:12 10° NW 02:21:34 23° W 02:21:34 23° W visible
06 Aug 3.9 00:18:26 10° NNW 00:23:57 47° ENE 00:24:28 46° ENE visible
06 Aug 4.6 02:03:03 10° NW 02:06:13 23° WNW 02:06:13 23° WNW visible
07 Aug 3.9 00:03:23 10° NNW 00:08:52 45° ENE 00:09:11 45° ENE visible
07 Aug 4.6 01:47:54 10° NW 01:50:57 24° WNW 01:50:57 24° WNW visible
07 Aug 4.0 23:48:20 10° NNW 23:53:47 43° ENE 23:53:58 43° ENE visible
